Date,TemperatureHighF,TemperatureAvgF,TemperatureLowF,DewpointHighF,DewpointAvgF,DewpointLowF,HumidityHigh,HumidityAvg,HumidityLow,PressureMaxIn,PressureMinIn,WindSpeedMaxMPH,WindSpeedAvgMPH,GustSpeedMaxMPH,PrecipitationSumIn
2013-1-1,25.1,15.8,1.9,0.0,0.0,0.0,0,0,100,30.07,29.92,10,3,31,0.00
2013-1-2,25.8,16.5,11.3,0.0,0.0,0.0,0,0,100,30.21,30.06,12,3,23,0.00
2013-1-3,38.2,15.3,-0.9,0.0,0.0,0.0,0,0,100,30.24,30.14,7,0,13,0.00
2013-1-4,45.7,21.2,9.1,0.0,0.0,0.0,0,0,100,30.21,30.05,5,0,9,0.00
2013-1-5,40.3,22.9,7.5,0.0,0.0,0.0,0,0,100,30.30,30.06,12,2,24,0.00
2013-1-6,48.7,29.6,7.9,0.0,0.0,0.0,0,0,100,30.29,30.00,8,1,18,0.00
2013-1-7,48.8,36.1,22.5,0.0,0.0,0.0,0,0,100,30.06,29.86,8,1,26,0.00
2013-1-8,36.0,32.0,29.1,0.0,0.0,0.0,0,0,100,30.29,29.84,14,7,44,0.00
2013-1-9,53.5,34.5,24.2,0.0,0.0,0.0,0,0,100,30.35,30.08,9,1,23,0.00
2013-1-10,47.3,30.1,19.8,0.0,0.0,0.0,0,0,100,30.08,29.49,6,0,19,0.00
2013-1-11,32.3,19.9,8.5,0.0,0.0,0.0,0,0,100,29.64,29.24,14,5,40,0.00
2013-1-12,18.4,6.2,-4.7,0.0,0.0,0.0,0,0,100,29.78,29.64,9,1,24,0.00
2013-1-13,13.2,-0.3,-8.1,0.0,0.0,0.0,0,0,100,29.88,29.76,3,0,9,0.00
2013-1-14,16.5,0.0,-11.1,0.0,0.0,0.0,0,0,100,29.94,29.80,9,1,26,0.00
2013-1-15,33.6,21.6,5.4,0.0,0.0,0.0,0,0,100,30.12,29.87,9,3,29,0.00
2013-1-16,47.8,32.0,16.8,0.0,0.0,0.0,0,0,100,30.41,30.12,10,2,26,0.00
2013-1-17,48.9,28.1,10.6,0.0,0.0,0.0,0,0,100,30.51,30.29,17,1,29,0.00
2013-1-18,44.3,37.1,33.4,0.0,0.0,0.0,0,0,100,30.30,30.15,15,6,37,0.00
2013-1-19,49.4,38.7,31.9,0.0,0.0,0.0,0,0,100,30.31,30.14,12,6,34,0.00
2013-1-20,44.9,35.6,24.1,0.0,0.0,0.0,0,0,100,30.31,30.17,13,4,26,0.00
2013-1-21,44.1,36.1,30.1,0.0,0.0,0.0,0,0,100,30.23,30.15,15,8,34,0.00
2013-1-22,50.3,42.4,36.7,0.0,0.0,0.0,0,0,100,30.30,30.11,20,9,47,0.00
2013-1-23,54.4,45.6,32.7,0.0,0.0,0.0,0,0,100,30.31,30.26,16,6,39,0.00
2013-1-24,48.8,42.4,38.2,0.0,0.0,0.0,0,0,100,30.27,30.08,14,4,31,0.00
2013-1-25,48.3,40.6,34.0,0.0,0.0,0.0,0,0,100,30.24,30.13,16,4,30,0.00
2013-1-26,51.8,40.1,30.9,0.0,0.0,0.0,0,0,100,30.12,29.79,12,2,25,0.00
2013-1-27,47.2,37.4,25.1,0.0,0.0,0.0,0,0,100,29.83,29.73,13,2,30,0.00
2013-1-28,42.5,31.3,20.3,0.0,0.0,0.0,0,0,100,29.77,29.57,13,2,35,0.00
2013-1-29,27.8,17.1,5.1,0.0,0.0,0.0,0,0,100,29.83,29.59,13,2,25,0.00
2013-1-30,26.1,20.0,8.4,0.0,0.0,0.0,0,0,100,29.84,29.68,16,7,42,0.00
2013-1-31,34.6,28.8,24.7,0.0,0.0,0.0,0,0,100,30.14,29.83,17,8,43,0.00
2013-2-1,36.1,30.3,27.5,0.0,0.0,0.0,0,0,100,30.18,30.04,15,5,40,0.00
2013-2-2,47.0,35.6,28.2,0.0,0.0,0.0,0,0,100,30.36,30.18,15,5,33,0.00
2013-2-3,49.9,39.1,30.6,0.0,0.0,0.0,0,0,100,30.29,29.97,12,5,28,0.00
2013-2-4,43.4,34.5,29.7,0.0,0.0,0.0,0,0,100,30.03,29.89,14,6,48,0.00
2013-2-5,52.2,39.7,32.2,0.0,0.0,0.0,0,0,100,30.09,29.93,10,4,30,0.00
2013-2-6,44.0,36.7,26.2,0.0,0.0,0.0,0,0,100,30.11,29.88,13,2,24,0.00
2013-2-7,45.7,27.0,11.8,0.0,0.0,0.0,0,0,100,30.17,30.06,8,1,18,0.00
2013-2-8,44.2,26.9,11.4,0.0,0.0,0.0,0,0,100,30.05,29.72,7,0,16,0.00
2013-2-9,33.0,22.2,13.0,0.0,0.0,0.0,0,0,100,29.71,29.47,6,1,28,0.00
2013-2-10,30.0,20.5,10.2,0.0,0.0,0.0,0,0,100,29.91,29.51,8,1,21,0.00
2013-2-11,25.4,14.8,4.9,0.0,0.0,0.0,0,0,100,29.94,29.85,2,0,8,0.00
2013-2-12,39.0,23.2,8.5,0.0,0.0,0.0,0,0,100,29.99,29.93,13,4,28,0.00
2013-2-13,36.4,28.1,21.7,0.0,0.0,0.0,0,0,100,30.01,29.90,16,8,42,0.00
2013-2-14,35.8,22.9,12.1,0.0,0.0,0.0,0,0,100,30.20,29.98,10,2,23,0.00
2013-2-15,33.6,23.2,8.2,0.0,0.0,0.0,0,0,100,30.26,30.15,16,3,32,0.00
2013-2-16,46.5,34.7,26.2,0.0,0.0,0.0,0,0,100,30.24,30.00,18,7,40,0.00
2013-2-17,48.1,36.1,22.9,0.0,0.0,0.0,0,0,100,30.02,29.63,22,5,38,0.00
2013-2-18,31.5,22.9,11.8,0.0,0.0,0.0,0,0,100,29.99,29.74,15,3,30,0.00
2013-2-19,44.1,24.6,8.0,0.0,0.0,0.0,0,0,100,29.99,29.74,8,1,12,0.00
2013-2-20,39.4,23.5,13.8,0.0,0.0,0.0,0,0,100,29.73,29.54,6,0,13,0.00
2013-2-21,32.0,19.4,9.9,0.0,0.0,0.0,0,0,100,29.77,29.57,1,0,7,0.00
2013-2-22,33.3,22.8,16.5,0.0,0.0,0.0,0,0,100,29.85,29.73,13,5,42,0.00
2013-2-23,40.5,27.0,18.0,0.0,0.0,0.0,0,0,100,29.75,29.56,18,5,44,0.00
2013-2-24,26.8,19.7,3.6,0.0,0.0,0.0,0,0,100,30.01,29.65,1,0,9,0.00
2013-2-25,40.1,22.2,1.0,0.0,0.0,0.0,0,0,100,29.99,29.76,7,1,19,0.00
2013-2-26,35.3,24.7,17.2,0.0,0.0,0.0,0,0,100,30.07,29.72,7,1,28,0.00
2013-2-27,30.8,20.5,8.6,0.0,0.0,0.0,0,0,100,30.18,30.07,14,3,29,0.00
2013-2-28,36.0,25.6,18.4,0.0,0.0,0.0,0,0,100,30.23,30.13,13,5,32,0.00
2013-3-1,45.6,33.3,22.1,0.0,0.0,0.0,0,0,100,30.39,30.24,12,4,34,0.00
2013-3-2,49.4,40.8,33.9,0.0,0.0,0.0,0,0,100,30.39,30.14,14,6,29,0.00
2013-3-3,51.5,41.6,32.4,0.0,0.0,0.0,0,0,100,30.12,29.73,21,4,44,0.00
2013-3-4,38.8,26.8,17.8,0.0,0.0,0.0,0,0,100,30.13,29.73,9,2,31,0.00
2013-3-5,48.9,32.0,16.9,0.0,0.0,0.0,0,0,100,30.21,30.13,12,3,28,0.00
2013-3-6,57.7,43.0,23.3,0.0,0.0,0.0,0,0,100,30.15,29.90,16,2,35,0.00
2013-3-7,58.1,42.7,25.3,0.0,0.0,0.0,0,0,100,30.08,29.89,12,2,34,0.00
2013-3-8,52.9,33.8,22.7,0.0,0.0,0.0,0,0,100,30.04,29.69,7,0,14,0.00
2013-3-9,36.9,26.9,17.1,0.0,0.0,0.0,0,0,100,30.06,29.63,6,0,14,0.00
2013-3-10,44.7,30.2,16.2,0.0,0.0,0.0,0,0,100,30.11,30.02,12,3,35,0.00
2013-3-11,42.7,32.7,24.4,0.0,0.0,0.0,0,0,100,30.11,29.93,20,6,43,0.00
2013-3-12,44.0,31.8,21.4,0.0,0.0,0.0,0,0,100,30.28,30.10,13,2,35,0.00
2013-3-13,56.9,44.1,36.4,0.0,0.0,0.0,0,0,100,30.39,30.24,15,6,41,0.00
2013-3-14,59.9,49.0,42.0,0.0,0.0,0.0,0,0,100,30.44,30.30,13,4,31,0.00
2013-3-15,67.0,52.8,43.8,0.0,0.0,0.0,0,0,100,30.30,30.02,14,4,37,0.00
2013-3-16,52.6,41.2,31.6,0.0,0.0,0.0,0,0,100,30.07,29.88,7,1,20,0.00
2013-3-17,45.9,34.4,22.7,0.0,0.0,0.0,0,0,100,29.88,29.57,14,3,29,0.00
2013-3-18,36.1,26.8,19.4,0.0,0.0,0.0,0,0,100,29.94,29.81,12,3,30,0.00
2013-3-19,43.8,31.5,20.4,0.0,0.0,0.0,0,0,100,30.31,29.93,12,5,41,0.00
2013-3-20,53.3,36.3,12.0,0.0,0.0,0.0,0,0,100,30.31,29.81,9,3,36,0.00
2013-3-21,48.5,36.0,25.5,0.0,0.0,0.0,0,0,100,29.81,29.60,16,4,33,0.00
2013-3-22,38.8,25.9,19.1,0.0,0.0,0.0,0,0,100,29.84,29.67,12,2,29,0.00
2013-3-23,25.8,16.1,1.6,0.0,0.0,0.0,0,0,100,30.05,29.80,1,0,5,0.00
2013-3-24,31.3,13.6,-2.4,0.0,0.0,0.0,0,0,100,30.08,29.95,9,1,24,0.00
2013-3-25,39.1,18.7,1.0,0.0,0.0,0.0,0,0,100,30.16,30.07,7,0,16,0.00
2013-3-26,48.4,32.8,8.1,0.0,0.0,0.0,0,0,100,30.13,29.94,13,3,26,0.00
2013-3-27,49.7,37.1,26.3,0.0,0.0,0.0,0,0,100,30.18,30.00,13,2,24,0.00
2013-3-28,56.5,38.6,23.3,0.0,0.0,0.0,0,0,100,30.27,30.14,5,0,16,0.00
2013-3-29,53.2,40.7,27.8,0.0,0.0,0.0,0,0,100,30.28,30.19,17,4,31,0.00
2013-3-30,56.9,43.1,29.6,0.0,0.0,0.0,0,0,100,30.29,30.17,17,2,31,0.00
2013-3-31,61.6,42.9,23.7,0.0,0.0,0.0,0,0,100,30.29,30.08,12,3,32,0.00
2013-4-1,50.2,35.5,22.8,0.0,0.0,0.0,0,0,100,30.22,30.07,5,0,10,0.00
2013-4-2,38.3,32.9,30.7,0.0,0.0,0.0,0,0,100,30.17,30.08,2,0,7,0.00
2013-4-3,54.0,36.7,19.3,0.0,0.0,0.0,0,0,100,30.28,30.13,9,1,25,0.00
2013-4-4,61.4,47.7,38.5,0.0,0.0,0.0,0,0,100,30.28,30.15,9,2,23,0.00
2013-4-5,63.2,48.3,39.4,0.0,0.0,0.0,0,0,100,30.14,29.85,12,3,30,0.00
2013-4-6,59.4,44.4,35.3,0.0,0.0,0.0,0,0,100,30.05,29.97,12,4,28,0.00
2013-4-7,54.1,41.4,35.2,0.0,0.0,0.0,0,0,100,29.99,29.80,15,3,30,0.00
2013-4-8,55.6,39.5,27.3,0.0,0.0,0.0,0,0,100,29.82,29.55,9,1,17,0.00
2013-4-9,27.0,18.0,9.8,0.0,0.0,0.0,0,0,100,30.02,29.74,5,0,10,0.00
2013-4-10,35.6,19.5,0.9,0.0,0.0,0.0,0,0,100,29.99,29.82,10,2,34,0.00
2013-4-11,51.4,38.4,27.4,0.0,0.0,0.0,0,0,100,29.92,29.74,12,4,31,0.00
2013-4-12,54.1,37.2,25.8,0.0,0.0,0.0,0,0,100,30.01,29.90,13,2,26,0.00
2013-4-13,58.7,41.5,23.6,0.0,0.0,0.0,0,0,100,29.97,29.53,16,4,40,0.00
2013-4-14,35.7,29.9,24.6,0.0,0.0,0.0,0,0,100,29.76,29.58,9,2,31,0.00
2013-4-15,29.5,23.9,18.3,0.0,0.0,0.0,0,0,100,29.91,29.68,6,0,15,0.00
2013-4-16,31.2,24.1,17.2,0.0,0.0,0.0,0,0,100,29.92,29.78,0,0,5,0.00
2013-4-17,28.8,21.7,7.5,0.0,0.0,0.0,0,0,100,30.05,29.84,2,0,7,0.00
2013-4-18,35.2,18.4,0.6,0.0,0.0,0.0,0,0,100,30.13,29.98,14,5,32,0.00
2013-4-19,45.5,32.8,22.8,0.0,0.0,0.0,0,0,100,30.12,30.00,15,7,37,0.00
2013-4-20,50.2,39.0,32.2,0.0,0.0,0.0,0,0,100,30.10,29.94,8,2,20,0.00
2013-4-21,54.0,39.9,32.3,0.0,0.0,0.0,0,0,100,30.17,30.07,10,2,30,0.00
2013-4-22,45.1,29.6,16.7,0.0,0.0,0.0,0,0,100,30.22,29.98,8,1,19,0.00
2013-4-23,38.2,24.4,14.1,0.0,0.0,0.0,0,0,100,30.18,30.05,6,0,13,0.00
2013-4-24,46.0,32.5,16.7,0.0,0.0,0.0,0,0,100,30.29,30.11,10,2,23,0.00
2013-4-25,61.8,40.7,21.4,0.0,0.0,0.0,0,0,100,30.24,30.02,12,1,22,0.00
2013-4-26,61.2,42.3,26.3,0.0,0.0,0.0,0,0,100,30.41,30.16,8,0,13,0.00
2013-4-27,68.2,49.7,28.2,0.0,0.0,0.0,0,0,100,30.39,30.23,12,2,26,0.00
2013-4-28,69.9,55.4,40.4,0.0,0.0,0.0,0,0,100,30.23,30.05,15,3,30,0.00
2013-4-29,75.5,56.6,38.2,0.0,0.0,0.0,0,0,100,30.11,29.77,13,3,36,0.00
2013-4-30,54.6,45.7,33.1,0.0,0.0,0.0,0,0,100,30.04,29.77,9,2,23,0.00
2013-5-1,35.8,27.3,14.4,0.0,0.0,0.0,0,0,100,30.57,30.04,0,0,0,0.00
2013-5-2,45.0,27.6,6.5,0.0,0.0,0.0,0,0,100,30.68,30.45,7,0,16,0.00
2013-5-3,56.4,41.9,30.5,0.0,0.0,0.0,0,0,100,30.46,30.20,12,3,24,0.00
2013-5-4,50.6,38.9,26.6,0.0,0.0,0.0,0,0,100,30.32,30.19,7,1,16,0.00
2013-5-5,55.6,40.3,26.2,0.0,0.0,0.0,0,0,100,30.32,30.18,7,0,12,0.00
2013-5-6,60.3,45.3,30.5,0.0,0.0,0.0,0,0,100,30.22,30.08,3,0,10,0.00
2013-5-7,67.2,49.7,34.1,0.0,0.0,0.0,0,0,100,30.16,30.04,8,2,21,0.00
2013-5-8,60.0,41.0,31.6,0.0,0.0,0.0,0,0,100,30.25,30.10,7,1,16,0.00
2013-5-9,46.6,38.5,32.0,0.0,0.0,0.0,0,0,100,30.37,30.23,2,0,12,0.00
2013-5-10,62.4,44.0,29.3,0.0,0.0,0.0,0,0,100,30.53,30.33,7,1,16,0.00
2013-5-11,62.3,46.2,31.1,0.0,0.0,0.0,0,0,100,30.58,30.43,7,1,17,0.00
2013-5-12,75.8,57.9,39.4,0.0,0.0,0.0,0,0,100,30.48,30.36,10,1,22,0.00
2013-5-13,81.4,65.6,48.8,0.0,0.0,0.0,0,0,100,30.44,30.31,10,2,27,0.00
2013-5-14,79.3,63.1,50.1,0.0,0.0,0.0,0,0,100,30.31,30.19,10,3,23,0.00
2013-5-15,71.3,54.7,44.0,0.0,0.0,0.0,0,0,100,30.22,30.14,13,1,19,0.00
2013-5-16,75.0,58.0,42.6,0.0,0.0,0.0,0,0,100,30.15,30.04,20,3,33,0.00
2013-5-17,83.0,60.6,38.3,0.0,0.0,0.0,0,0,100,30.12,30.00,12,1,23,0.00
2013-5-18,67.2,52.0,41.2,0.0,0.0,0.0,0,0,100,30.11,29.98,10,2,29,0.00
2013-5-19,67.0,51.4,42.2,0.0,0.0,0.0,0,0,100,30.03,29.91,13,4,29,0.00
2013-5-20,62.8,49.8,41.7,0.0,0.0,0.0,0,0,100,30.16,29.97,12,2,23,0.00
2013-5-21,67.1,51.0,39.5,0.0,0.0,0.0,0,0,100,30.17,30.04,14,3,28,0.00
2013-5-22,68.8,52.2,33.3,0.0,0.0,0.0,0,0,100,30.24,30.06,6,1,18,0.00
2013-5-23,58.4,49.6,43.0,0.0,0.0,0.0,0,0,100,30.25,30.15,7,1,18,0.00
2013-5-24,81.0,58.4,36.8,0.0,0.0,0.0,0,0,100,30.23,30.11,10,1,22,0.00
2013-5-25,81.6,60.9,36.2,0.0,0.0,0.0,0,0,100,30.23,30.12,10,2,20,0.00
2013-5-26,82.0,60.3,45.4,0.0,0.0,0.0,0,0,100,30.19,30.11,13,1,21,0.00
2013-5-27,79.4,61.8,44.7,0.0,0.0,0.0,0,0,100,30.11,29.98,7,1,24,0.00
2013-5-28,74.1,55.8,36.1,0.0,0.0,0.0,0,0,100,30.03,29.78,9,1,23,0.00
2013-5-29,61.8,47.8,40.8,0.0,0.0,0.0,0,0,100,29.87,29.75,15,4,30,0.00
2013-5-30,57.5,45.9,40.9,0.0,0.0,0.0,0,0,100,29.99,29.79,17,6,49,0.00
2013-5-31,62.6,51.1,39.2,0.0,0.0,0.0,0,0,100,30.19,29.95,12,4,35,0.00
2013-6-1,64.8,51.5,40.4,0.0,0.0,0.0,0,0,100,30.41,30.19,9,2,22,0.00
2013-6-2,83.7,56.8,30.0,0.0,0.0,0.0,0,0,100,30.39,30.07,9,1,22,0.00
2013-6-3,80.9,61.5,43.7,0.0,0.0,0.0,0,0,100,30.17,30.01,16,2,33,0.00
2013-6-4,71.9,55.7,40.5,0.0,0.0,0.0,0,0,100,30.37,30.15,9,1,14,0.00
2013-6-5,66.8,51.2,40.2,0.0,0.0,0.0,0,0,100,30.35,30.25,7,1,13,0.00
2013-6-6,73.8,54.9,34.3,0.0,0.0,0.0,0,0,100,30.38,30.26,5,0,12,0.00
2013-6-7,84.0,59.3,39.1,0.0,0.0,0.0,0,0,100,30.36,30.04,14,2,26,0.00
2013-6-8,75.6,63.8,46.9,0.0,0.0,0.0,0,0,100,30.28,29.98,8,3,29,0.00
2013-6-9,91.5,66.4,37.4,0.0,0.0,0.0,0,0,100,30.27,30.20,7,1,18,0.00
2013-6-10,93.7,73.5,57.9,0.0,0.0,0.0,0,0,100,30.26,30.17,10,1,28,0.00
2013-6-11,92.2,71.7,48.4,0.0,0.0,0.0,0,0,100,30.23,30.12,15,3,33,0.00
2013-6-12,85.0,71.0,48.8,0.0,0.0,0.0,0,0,100,30.40,30.23,9,2,22,0.00
2013-6-13,93.7,67.6,45.9,0.0,0.0,0.0,0,0,100,30.40,30.17,16,2,28,0.00
2013-6-14,90.8,68.4,48.0,0.0,0.0,0.0,0,0,100,30.27,30.16,10,2,22,0.00
2013-6-15,82.8,61.0,42.2,0.0,0.0,0.0,0,0,100,30.34,30.23,8,1,21,0.00
2013-6-16,80.3,61.1,45.4,0.0,0.0,0.0,0,0,100,30.46,30.29,12,2,23,0.00
2013-6-17,77.4,60.2,42.1,0.0,0.0,0.0,0,0,100,30.41,30.29,7,1,20,0.00
2013-6-18,79.8,61.0,42.2,0.0,0.0,0.0,0,0,100,30.38,30.15,8,1,14,0.00
2013-6-19,91.4,67.9,41.6,0.0,0.0,0.0,0,0,100,30.23,29.98,8,2,26,0.00
2013-6-20,81.7,64.9,44.8,0.0,0.0,0.0,0,0,100,30.20,30.05,10,3,22,0.00
2013-6-21,93.8,68.3,42.9,0.0,0.0,0.0,0,0,100,30.19,30.08,10,1,23,0.00
2013-6-22,85.2,63.9,43.1,0.0,0.0,0.0,0,0,100,30.19,30.02,8,2,37,0.00
2013-6-23,77.1,60.6,40.6,0.0,0.0,0.0,0,0,100,30.22,30.08,9,2,17,0.00
2013-6-24,88.6,68.0,42.4,0.0,0.0,0.0,0,0,100,30.15,30.04,12,2,29,0.00
2013-6-25,85.7,69.2,53.6,0.0,0.0,0.0,0,0,100,30.32,30.08,13,3,28,0.00
2013-6-26,93.3,71.4,45.3,0.0,0.0,0.0,0,0,100,30.45,30.31,9,2,21,0.00
2013-6-27,100.2,74.0,52.2,0.0,0.0,0.0,0,0,100,30.59,30.43,7,1,17,0.00
2013-6-28,95.1,71.9,49.7,0.0,0.0,0.0,0,0,100,30.58,30.45,7,1,15,0.00
2013-6-29,81.4,64.2,48.4,0.0,0.0,0.0,0,0,100,30.55,30.41,7,1,14,0.00
2013-6-30,74.8,60.7,51.9,0.0,0.0,0.0,0,0,100,30.49,30.40,5,0,15,0.00
2013-7-1,73.2,59.7,43.8,0.0,0.0,0.0,0,0,100,30.56,30.47,7,1,13,0.00
2013-7-2,79.5,61.1,44.0,0.0,0.0,0.0,0,0,100,30.52,30.41,6,0,14,0.00
2013-7-3,83.2,60.7,41.8,0.0,0.0,0.0,0,0,100,30.41,30.22,6,0,16,0.00
2013-7-4,83.6,66.0,51.2,0.0,0.0,0.0,0,0,100,30.30,30.22,9,1,18,0.00
2013-7-5,84.3,64.3,51.4,0.0,0.0,0.0,0,0,100,30.24,30.14,10,1,27,0.00
2013-7-6,86.0,64.8,51.3,0.0,0.0,0.0,0,0,100,30.30,30.17,10,2,25,0.00
2013-7-7,87.9,67.3,49.3,0.0,0.0,0.0,0,0,100,30.38,30.28,9,2,25,0.00
2013-7-8,86.1,69.2,55.1,0.0,0.0,0.0,0,0,100,30.46,30.33,12,2,35,0.00
2013-7-9,92.2,70.2,52.3,0.0,0.0,0.0,0,0,100,30.54,30.44,9,1,19,0.00
2013-7-10,82.0,66.9,47.2,0.0,0.0,0.0,0,0,100,30.53,30.33,8,1,17,0.00
2013-7-11,90.3,71.6,49.8,0.0,0.0,0.0,0,0,100,30.42,30.18,7,1,30,0.00
2013-7-12,81.4,68.6,59.0,0.0,0.0,0.0,0,0,100,30.37,30.23,8,1,32,0.00
2013-7-13,85.8,64.6,52.9,0.0,0.0,0.0,0,0,100,30.47,30.34,8,1,22,0.00
2013-7-14,70.8,60.1,47.9,0.0,0.0,0.0,0,0,100,30.51,30.41,6,0,12,0.00
2013-7-15,77.0,60.9,54.1,0.0,0.0,0.0,0,0,100,30.49,30.37,8,1,13,0.00
2013-7-16,80.8,62.8,45.0,0.0,0.0,0.0,0,0,100,30.50,30.37,8,1,15,0.00
2013-7-17,87.2,66.5,45.7,0.0,0.0,0.0,0,0,100,30.49,30.41,6,0,17,0.00
2013-7-18,84.6,64.0,55.3,0.0,0.0,0.0,0,0,100,30.52,30.40,14,0,26,0.00
2013-7-19,78.2,63.4,50.4,0.0,0.0,0.0,0,0,100,30.48,30.36,6,1,14,0.00
2013-7-20,86.0,63.3,46.1,0.0,0.0,0.0,0,0,100,30.37,30.26,6,0,13,0.00
2013-7-21,93.6,68.4,45.0,0.0,0.0,0.0,0,0,100,30.28,30.19,8,1,23,0.00
2013-7-22,93.7,71.8,51.8,0.0,0.0,0.0,0,0,100,30.32,30.23,9,1,24,0.00
2013-7-23,93.7,69.4,51.7,0.0,0.0,0.0,0,0,100,30.47,30.30,8,1,14,0.00
2013-7-24,82.2,62.1,50.1,0.0,0.0,0.0,0,0,100,30.47,30.34,12,1,27,0.00
2013-7-25,71.5,59.2,52.6,0.0,0.0,0.0,0,0,100,30.53,30.33,7,0,16,0.00
2013-7-26,81.3,62.5,45.1,0.0,0.0,0.0,0,0,100,30.55,30.43,6,1,14,0.00
2013-7-27,82.2,61.2,46.5,0.0,0.0,0.0,0,0,100,30.45,30.28,9,2,22,0.00
2013-7-28,70.9,58.2,50.9,0.0,0.0,0.0,0,0,100,30.30,30.16,7,0,18,0.00
2013-7-29,70.3,58.1,49.6,0.0,0.0,0.0,0,0,100,30.46,30.20,13,1,18,0.00
2013-7-30,83.6,65.2,48.3,0.0,0.0,0.0,0,0,100,30.55,30.44,9,2,21,0.00
2013-7-31,84.0,65.5,48.3,0.0,0.0,0.0,0,0,100,30.59,30.47,12,2,22,0.00
2013-8-1,82.4,64.4,46.7,0.0,0.0,0.0,0,0,100,30.52,30.28,7,0,19,0.00
2013-8-2,89.2,71.9,57.3,0.0,0.0,0.0,0,0,100,30.38,30.25,12,4,30,0.00
2013-8-3,84.5,65.4,50.6,0.0,0.0,0.0,0,0,100,30.52,30.36,10,1,21,0.00
2013-8-4,84.7,65.9,48.9,0.0,0.0,0.0,0,0,100,30.48,30.38,9,1,17,0.00
2013-8-5,84.5,64.5,52.3,0.0,0.0,0.0,0,0,100,30.40,30.31,9,2,18,0.00
2013-8-6,85.6,66.5,52.7,0.0,0.0,0.0,0,0,100,30.38,30.28,13,3,23,0.00
2013-8-7,68.6,57.2,46.7,0.0,0.0,0.0,0,0,100,30.36,30.27,8,0,21,0.00
2013-8-8,70.9,56.6,41.5,0.0,0.0,0.0,0,0,100,30.43,30.27,5,1,15,0.00
2013-8-9,69.8,52.9,42.0,0.0,0.0,0.0,0,0,100,30.51,30.39,9,0,16,0.00
2013-8-10,77.9,59.2,41.5,0.0,0.0,0.0,0,0,100,30.49,30.39,10,1,16,0.00
2013-8-11,68.1,58.0,48.0,0.0,0.0,0.0,0,0,100,30.50,30.41,5,0,17,0.00
2013-8-12,71.6,56.1,43.0,0.0,0.0,0.0,0,0,100,30.53,30.41,6,0,14,0.00
2013-8-13,65.0,53.0,42.6,0.0,0.0,0.0,0,0,100,30.53,30.40,7,1,23,0.00
2013-8-14,74.8,56.3,40.5,0.0,0.0,0.0,0,0,100,30.49,30.38,7,0,15,0.00
2013-8-15,82.0,61.8,43.8,0.0,0.0,0.0,0,0,100,30.50,30.38,8,1,23,0.00
2013-8-16,84.3,62.4,42.6,0.0,0.0,0.0,0,0,100,30.50,30.42,7,1,15,0.00
2013-8-17,87.5,65.9,45.9,0.0,0.0,0.0,0,0,100,30.49,30.35,7,1,15,0.00
2013-8-18,89.8,69.2,52.1,0.0,0.0,0.0,0,0,100,30.47,30.36,9,2,23,0.00
2013-8-19,88.1,68.3,50.4,0.0,0.0,0.0,0,0,100,30.44,30.35,6,1,14,0.00
2013-8-20,91.8,67.8,50.9,0.0,0.0,0.0,0,0,100,30.38,30.32,8,1,19,0.00
2013-8-21,80.4,66.8,56.1,0.0,0.0,0.0,0,0,100,30.45,30.36,8,1,17,0.00
2013-8-22,78.7,59.2,49.1,0.0,0.0,0.0,0,0,100,30.53,30.42,5,0,12,0.00
2013-8-23,80.7,62.7,50.8,0.0,0.0,0.0,0,0,100,30.47,30.27,8,1,18,0.00
2013-8-24,77.6,61.6,46.8,0.0,0.0,0.0,0,0,100,30.45,30.30,8,1,23,0.00
2013-8-25,77.4,60.8,47.5,0.0,0.0,0.0,0,0,100,30.46,30.40,8,0,14,0.00
2013-8-26,84.6,65.5,50.3,0.0,0.0,0.0,0,0,100,30.48,30.40,12,2,22,0.00
2013-8-27,79.6,61.7,49.7,0.0,0.0,0.0,0,0,100,30.47,30.38,6,0,18,0.00
2013-8-28,80.6,63.0,49.1,0.0,0.0,0.0,0,0,100,30.48,30.40,8,0,20,0.00
2013-8-29,83.9,63.1,50.3,0.0,0.0,0.0,0,0,100,30.58,30.44,17,1,25,0.00
2013-8-30,78.8,62.0,48.8,0.0,0.0,0.0,0,0,100,30.53,30.42,6,0,18,0.00
2013-8-31,80.1,60.7,49.9,0.0,0.0,0.0,0,0,100,30.46,30.38,9,1,19,0.00
2013-9-1,71.4,57.3,47.3,0.0,0.0,0.0,0,0,100,30.48,30.39,5,0,13,0.00
2013-9-2,80.4,63.6,47.8,0.0,0.0,0.0,0,0,100,30.43,30.35,7,1,14,0.00
2013-9-3,89.4,68.4,53.8,0.0,0.0,0.0,0,0,100,30.49,30.38,14,2,26,0.00
2013-9-4,80.0,60.0,50.6,0.0,0.0,0.0,0,0,100,30.60,30.45,9,0,15,0.00
2013-9-5,83.3,63.6,49.8,0.0,0.0,0.0,0,0,100,30.55,30.47,7,0,12,0.00
2013-9-6,79.5,62.0,54.5,0.0,0.0,0.0,0,0,100,30.51,30.40,10,1,24,0.00
2013-9-7,81.4,63.5,48.8,0.0,0.0,0.0,0,0,100,30.46,30.36,5,0,14,0.00
2013-9-8,79.4,60.6,48.2,0.0,0.0,0.0,0,0,100,30.37,30.20,6,0,20,0.00
2013-9-9,71.5,58.8,51.9,0.0,0.0,0.0,0,0,100,30.30,30.19,14,1,23,0.00
2013-9-10,58.4,53.9,51.2,0.0,0.0,0.0,0,0,100,30.45,30.26,3,0,8,0.00
2013-9-11,58.3,54.0,51.9,0.0,0.0,0.0,0,0,100,30.48,30.41,1,0,6,0.00
2013-9-12,54.2,52.1,50.7,0.0,0.0,0.0,0,0,100,30.53,30.47,0,0,0,0.00
2013-9-15,52.0,48.9,47.0,0.0,0.0,0.0,0,0,100,30.48,30.45,0,0,0,0.00
2013-9-16,69.7,54.1,45.4,0.0,0.0,0.0,0,0,100,30.45,30.29,7,0,23,0.00
2013-9-17,74.9,55.3,45.3,0.0,0.0,0.0,0,0,100,30.34,30.21,9,1,18,0.00
2013-9-24,70.0,52.8,41.6,0.0,0.0,0.0,0,0,100,30.18,0.00,8,1,14,0.00
2013-9-25,75.2,57.1,40.2,0.0,0.0,0.0,0,0,100,29.90,29.54,8,1,26,0.00
2013-9-26,64.2,49.2,39.8,0.0,0.0,0.0,0,0,100,29.77,29.61,6,1,11,0.00
2013-9-27,46.7,41.6,34.2,0.0,0.0,0.0,0,0,100,29.93,29.71,9,2,35,0.00
2013-9-28,57.6,44.9,33.7,0.0,0.0,0.0,0,0,100,30.14,29.90,16,7,37,0.00
2013-9-29,67.7,53.8,39.8,0.0,0.0,0.0,0,0,100,30.12,29.91,10,4,43,0.00
2013-9-30,75.4,60.4,53.4,0.0,0.0,0.0,0,0,100,29.99,29.86,13,4,39,0.00
2013-10-1,66.2,53.4,39.8,0.0,0.0,0.0,0,0,100,30.10,29.98,9,2,20,0.00
2013-10-2,68.7,51.6,38.5,0.0,0.0,0.0,0,0,100,30.03,29.93,7,2,18,0.00
2013-10-3,65.6,47.8,36.1,0.0,0.0,0.0,0,0,100,29.92,29.69,7,1,16,0.00
2013-10-4,42.5,34.0,27.5,0.0,0.0,0.0,0,0,100,30.08,29.69,12,2,33,0.00
2013-10-5,48.9,37.9,28.0,0.0,0.0,0.0,0,0,100,30.20,30.04,14,8,36,0.00
2013-10-6,66.7,50.8,40.5,0.0,0.0,0.0,0,0,100,30.28,30.18,13,4,35,0.00
2013-10-7,71.2,54.6,39.3,0.0,0.0,0.0,0,0,100,30.22,29.98,9,2,24,0.00
2013-10-8,72.6,56.7,42.8,0.0,0.0,0.0,0,0,100,29.98,29.79,9,3,24,0.00
2013-10-9,61.7,48.8,38.3,0.0,0.0,0.0,0,0,100,29.95,29.84,6,1,14,0.00
2013-10-10,52.1,42.4,35.1,0.0,0.0,0.0,0,0,100,29.92,29.47,9,1,27,0.00
2013-10-11,47.3,41.8,33.6,0.0,0.0,0.0,0,0,100,30.00,29.44,16,4,53,0.00
2013-10-12,53.6,37.3,26.3,0.0,0.0,0.0,0,0,100,30.11,30.01,5,0,11,0.00
2013-10-13,59.3,40.8,27.5,0.0,0.0,0.0,0,0,100,30.11,29.86,6,1,15,0.00
2013-10-14,48.7,40.2,32.5,0.0,0.0,0.0,0,0,100,30.07,29.76,12,2,29,0.00
2013-10-15,36.5,30.5,27.3,0.0,0.0,0.0,0,0,100,30.16,30.06,5,0,9,0.00
2013-10-16,47.0,34.5,21.8,0.0,0.0,0.0,0,0,100,30.07,29.93,12,3,26,0.00
2013-10-17,48.5,37.6,30.1,0.0,0.0,0.0,0,0,100,30.01,29.90,10,2,29,0.00
2013-10-18,39.0,31.2,21.3,0.0,0.0,0.0,0,0,100,30.06,29.93,13,3,32,0.00
2013-10-19,50.2,41.4,33.4,0.0,0.0,0.0,0,0,100,30.04,29.90,16,7,36,0.00
2013-10-20,45.5,37.2,24.1,0.0,0.0,0.0,0,0,100,30.05,29.87,10,2,22,0.00
2013-10-21,47.9,36.1,21.8,0.0,0.0,0.0,0,0,100,30.16,30.04,13,4,24,0.00
2013-10-22,59.5,48.1,40.9,0.0,0.0,0.0,0,0,100,30.19,30.12,10,4,28,0.00
2013-10-23,61.3,46.6,30.4,0.0,0.0,0.0,0,0,100,30.22,30.11,8,1,15,0.00
2013-10-24,58.9,38.7,25.1,0.0,0.0,0.0,0,0,100,30.22,30.15,6,0,10,0.00
2013-10-25,64.6,42.3,27.8,0.0,0.0,0.0,0,0,100,30.27,30.11,9,1,17,0.00
2013-10-26,57.9,38.6,25.7,0.0,0.0,0.0,0,0,100,30.34,30.14,5,0,14,0.00
2013-10-27,58.4,47.2,34.1,0.0,0.0,0.0,0,0,100,30.14,29.87,10,2,24,0.00
2013-10-28,38.4,31.8,26.4,0.0,0.0,0.0,0,0,100,29.93,29.83,0,0,7,0.00
2013-10-29,53.2,34.3,24.5,0.0,0.0,0.0,0,0,100,29.86,29.74,7,0,17,0.00
2013-10-30,42.3,34.3,30.0,0.0,0.0,0.0,0,0,100,29.77,29.68,9,3,29,0.00
2013-10-31,40.0,33.4,29.7,0.0,0.0,0.0,0,0,100,29.83,29.70,17,8,44,0.00
2013-11-1,44.1,36.6,32.3,0.0,0.0,0.0,0,0,100,30.14,29.82,10,3,26,0.00
2013-11-2,57.0,45.5,31.4,0.0,0.0,0.0,0,0,100,30.13,29.71,12,3,32,0.00
2013-11-3,55.3,44.1,29.2,0.0,0.0,0.0,0,0,100,29.71,29.54,16,3,34,0.00
2013-11-4,35.1,28.1,22.3,0.0,0.0,0.0,0,0,100,29.82,29.67,8,2,24,0.00
2013-11-5,34.3,25.8,20.5,0.0,0.0,0.0,0,0,100,29.99,29.75,12,4,30,0.00
2013-11-6,38.3,30.8,23.3,0.0,0.0,0.0,0,0,100,30.28,29.99,16,7,48,0.00
2013-11-7,54.2,41.3,31.9,0.0,0.0,0.0,0,0,100,30.31,29.93,13,4,31,0.00
2013-11-8,56.2,46.1,34.8,0.0,0.0,0.0,0,0,100,30.03,29.73,16,4,48,0.00
2013-11-9,58.4,42.4,29.6,0.0,0.0,0.0,0,0,100,30.21,30.01,9,2,21,0.00
2013-11-10,59.3,46.5,34.2,0.0,0.0,0.0,0,0,100,30.25,30.17,10,2,23,0.00
2013-11-11,60.4,43.8,28.4,0.0,0.0,0.0,0,0,100,30.53,30.17,13,3,30,0.00
2013-11-12,54.2,36.9,22.8,0.0,0.0,0.0,0,0,100,30.55,30.36,6,0,15,0.00
2013-11-13,56.5,47.2,33.9,0.0,0.0,0.0,0,0,100,30.36,30.00,8,3,26,0.00
2013-11-14,51.1,40.1,29.3,0.0,0.0,0.0,0,0,100,30.02,29.67,12,2,22,0.00
2013-11-15,49.1,39.2,30.3,0.0,0.0,0.0,0,0,100,29.67,29.36,12,2,35,0.00
2013-11-16,40.2,32.7,26.7,0.0,0.0,0.0,0,0,100,29.39,29.20,21,5,55,0.00
2013-11-17,40.9,32.3,25.2,0.0,0.0,0.0,0,0,100,29.98,29.38,18,6,55,0.00
2013-11-18,52.6,36.8,25.3,0.0,0.0,0.0,0,0,100,30.17,29.94,15,3,33,0.00
2013-11-19,48.2,39.7,27.2,0.0,0.0,0.0,0,0,100,29.98,29.69,10,3,32,0.00
2013-11-20,47.3,38.9,32.5,0.0,0.0,0.0,0,0,100,29.84,29.69,14,3,26,0.00
2013-11-21,32.0,16.3,8.6,0.0,0.0,0.0,0,0,100,30.30,29.84,7,0,9,0.00
2013-11-22,36.9,21.2,10.3,0.0,0.0,0.0,0,0,100,30.42,30.27,0,0,0,0.00
2013-11-23,32.4,22.2,13.9,0.0,0.0,0.0,0,0,100,30.41,30.12,0,0,10,0.00
2013-11-24,43.7,28.9,16.6,0.0,0.0,0.0,0,0,100,30.10,29.82,0,0,6,0.00
2013-11-25,39.1,29.6,19.4,0.0,0.0,0.0,0,0,100,30.20,29.92,1,0,9,0.00
2013-11-26,43.5,31.4,19.3,0.0,0.0,0.0,0,0,100,30.28,30.15,7,1,21,0.00
2013-11-27,48.3,37.8,26.4,0.0,0.0,0.0,0,0,100,30.15,30.01,9,2,23,0.00
2013-11-28,46.5,29.7,20.2,0.0,0.0,0.0,0,0,100,30.11,30.01,5,0,7,0.00
2013-11-29,45.2,39.0,29.0,0.0,0.0,0.0,0,0,100,30.13,30.02,12,4,30,0.00
2013-11-30,45.2,38.1,34.7,0.0,0.0,0.0,0,0,100,30.12,30.05,9,4,29,0.00
2013-12-1,42.0,35.9,32.1,0.0,0.0,0.0,0,0,100,30.08,29.76,18,7,46,0.00
2013-12-2,42.8,37.3,34.1,0.0,0.0,0.0,0,0,100,29.80,29.51,18,7,47,0.00
2013-12-3,37.6,27.5,5.6,0.0,0.0,0.0,0,0,100,29.50,29.31,9,1,21,0.00
2013-12-4,11.0,3.4,-8.5,0.0,0.0,0.0,0,0,100,29.62,29.36,3,0,11,0.00
2013-12-5,14.9,0.5,-11.4,0.0,0.0,0.0,0,0,100,29.69,29.52,7,0,15,0.00
2013-12-6,16.1,0.5,-10.1,0.0,0.0,0.0,0,0,100,29.79,29.67,9,0,15,0.00
2013-12-7,24.0,10.1,1.0,0.0,0.0,0.0,0,0,100,29.75,29.38,6,0,18,0.00
2013-12-8,21.5,11.9,2.2,0.0,0.0,0.0,0,0,100,29.63,29.33,14,2,26,0.00
2013-12-9,14.4,7.7,-2.0,0.0,0.0,0.0,0,0,100,29.92,29.63,18,9,47,0.00
2013-12-10,29.0,21.9,12.5,0.0,0.0,0.0,0,0,100,29.99,29.74,21,9,49,0.00
2013-12-11,35.8,28.7,20.7,0.0,0.0,0.0,0,0,100,30.18,29.98,15,7,35,0.00
2013-12-12,50.1,41.0,34.2,0.0,0.0,0.0,0,0,100,30.17,29.83,16,5,37,0.00
2013-12-13,42.7,34.1,24.9,0.0,0.0,0.0,0,0,100,29.99,29.71,9,4,28,0.00
2013-12-14,35.3,28.5,22.7,0.0,0.0,0.0,0,0,100,30.14,29.99,16,7,40,0.00
2013-12-15,42.9,35.4,27.5,0.0,0.0,0.0,0,0,100,30.13,30.03,16,9,43,0.00
2013-12-16,44.9,39.1,35.4,0.0,0.0,0.0,0,0,100,30.20,30.04,16,7,39,0.00
2013-12-17,51.7,42.9,36.6,0.0,0.0,0.0,0,0,100,30.28,30.06,13,5,31,0.00
2013-12-18,53.0,43.7,34.4,0.0,0.0,0.0,0,0,100,30.05,29.66,12,3,31,0.00
2013-12-19,47.6,36.1,18.4,0.0,0.0,0.0,0,0,100,29.65,29.39,16,3,40,0.00
2013-12-20,35.2,24.1,13.5,0.0,0.0,0.0,0,0,100,29.56,29.42,10,2,26,0.00
2013-12-21,32.2,24.8,16.0,0.0,0.0,0.0,0,0,100,29.65,29.32,7,1,19,0.00
2013-12-22,27.4,21.9,14.0,0.0,0.0,0.0,0,0,100,29.93,29.66,16,4,30,0.00
2013-12-23,36.1,26.7,10.8,0.0,0.0,0.0,0,0,100,30.07,29.93,18,6,44,0.00
2013-12-24,35.7,28.9,21.2,0.0,0.0,0.0,0,0,100,30.14,29.93,15,5,44,0.00
2013-12-25,38.2,29.0,21.0,0.0,0.0,0.0,0,0,100,30.21,30.10,13,6,30,0.00
2013-12-26,42.8,35.0,29.0,0.0,0.0,0.0,0,0,100,30.21,30.09,17,5,40,0.00
2013-12-27,52.9,37.6,26.6,0.0,0.0,0.0,0,0,100,30.21,29.99,7,1,17,0.00
2013-12-28,45.3,34.6,18.5,0.0,0.0,0.0,0,0,100,29.98,29.77,13,4,30,0.00
2013-12-29,31.9,21.3,4.2,0.0,0.0,0.0,0,0,100,30.00,29.73,18,4,41,0.00
2013-12-30,35.5,29.4,25.2,0.0,0.0,0.0,0,0,100,30.06,29.78,13,6,37,0.00
2013-12-31,39.7,34.1,29.7,0.0,0.0,0.0,0,0,100,29.95,29.80,15,5,44,0.00
2014-1-1,34.0,26.9,18.7,0.0,0.0,0.0,0,0,100,30.10,29.76,12,3,31,0.00
2014-1-2,46.0,34.8,24.3,0.0,0.0,0.0,0,0,100,30.08,29.89,18,7,36,0.00